2015-09-10, 07:37:04,VALID,920.451,VALID,0,VALID,100.782,VALID,83.9115,VALID,19.7238,VALID,62,VALID,0,
2015-09-10, 07:38:04,VALID,920.45,VALID,0,VALID,100.759,VALID,97.0194,VALID,19.8018,VALID,62,VALID,0,
2015-09-10, 07:39:04,VALID,920.498,VALID,0,VALID,100.751,VALID,103.681,VALID,19.8408,VALID,62,VALID,0,
2015-09-10, 07:40:04,VALID,920.51,VALID,0,VALID,100.759,VALID,101.424,VALID,19.8798,VALID,61,VALID,0,
2015-09-10, 07:41:04,VALID,920.52,VALID,0,VALID,100.766,VALID,99.3831,VALID,19.8603,VALID,57,VALID,0,
2015-09-10, 07:42:04,VALID,920.583,VALID,0,VALID,100.766,VALID,96.0524,VALID,19.8603,VALID,57,VALID,0,
2015-09-10, 07:43:04,VALID,920.587,VALID,0,VALID,100.789,VALID,97.5566,VALID,19.8393,VALID,57,VALID,0,
2015-09-10, 07:44:04,VALID,920.608,VALID,0,VALID,100.804,VALID,99.3831,VALID,19.8603,VALID,57,VALID,0,
2015-09-10, 07:45:04,VALID,920.594,VALID,0,VALID,100.759,VALID,106.582,VALID,19.8783,VALID,57,VALID,0,
2015-09-10, 07:46:04,VALID,920.64,VALID,0,VALID,100.797,VALID,114.64,VALID,19.8798,VALID,57,VALID,0,
2015-09-10, 07:47:04,VALID,920.661,VALID,0,VALID,100.789,VALID,126.136,VALID,19.8588,VALID,57,VALID,0,
2015-09-10, 07:48:04,VALID,920.676,VALID,0,VALID,100.766,VALID,136.235,VALID,19.9578,VALID,57,VALID,0,
2015-09-10, 07:49:04,VALID,920.663,VALID,0,VALID,100.766,VALID,142.897,VALID,19.9953,VALID,57,VALID,0,
2015-09-10, 07:50:04,VALID,920.682,VALID,0,VALID,100.743,VALID,144.401,VALID,20.0538,VALID,57,VALID,0,
2015-09-10, 07:51:04,VALID,920.707,VALID,0,VALID,100.713,VALID,149.666,VALID,20.1318,VALID,57,VALID,0,
2015-09-10, 07:52:04,VALID,920.69,VALID,0,VALID,100.721,VALID,151.062,VALID,20.1318,VALID,57,VALID,0,
2015-09-10, 07:53:04,VALID,920.724,VALID,0,VALID,100.759,VALID,152.244,VALID,20.1919,VALID,57,VALID,0,
2015-09-10, 07:54:04,VALID,920.714,VALID,0,VALID,100.705,VALID,157.079,VALID,20.2699,VALID,57,VALID,0,
2015-09-10, 07:55:04,VALID,920.729,VALID,0,VALID,100.743,VALID,158.583,VALID,20.2489,VALID,57,VALID,0,
2015-09-10, 07:56:04,VALID,920.716,VALID,0,VALID,100.774,VALID,156.757,VALID,20.2879,VALID,57,VALID,0,
2015-09-10, 07:57:04,VALID,920.76,VALID,0,VALID,100.766,VALID,153.856,VALID,20.3074,VALID,57,VALID,0,
2015-09-10, 07:58:04,VALID,920.754,VALID,0,VALID,100.766,VALID,150.418,VALID,20.3854,VALID,57,VALID,0,
2015-09-10, 07:59:04,VALID,920.762,VALID,0,VALID,100.766,VALID,154.608,VALID,20.3659,VALID,57,VALID,0,
2015-09-10, 08:00:04,VALID,920.75,VALID,0,VALID,100.835,VALID,160.41,VALID,20.3269,VALID,56,VALID,0,
2015-09-10, 08:01:04,VALID,920.77,VALID,0,VALID,100.873,VALID,172.121,VALID,20.3074,VALID,56,VALID,0,
2015-09-10, 08:02:04,VALID,920.771,VALID,0,VALID,100.881,VALID,182.435,VALID,20.3269,VALID,49,VALID,0,
2015-09-10, 08:03:04,VALID,920.787,VALID,0,VALID,100.949,VALID,197.799,VALID,20.3074,VALID,331,VALID,0,
2015-09-10, 08:04:04,VALID,920.813,VALID,0,VALID,101.026,VALID,203.601,VALID,20.2098,VALID,331,VALID,0,
2015-09-10, 08:05:04,VALID,920.821,VALID,0,VALID,101.003,VALID,204.138,VALID,20.2293,VALID,331,VALID,0,
2015-09-10, 08:06:04,VALID,920.817,VALID,0,VALID,101.079,VALID,206.18,VALID,20.1318,VALID,331,VALID,0,
2015-09-10, 08:07:04,VALID,920.824,VALID,0,VALID,101.064,VALID,207.039,VALID,20.1513,VALID,331,VALID,0,
2015-09-10, 08:08:04,VALID,920.78,VALID,0,VALID,101.018,VALID,208.758,VALID,20.1903,VALID,331,VALID,0,
2015-09-10, 08:09:04,VALID,920.79,VALID,0,VALID,100.987,VALID,207.469,VALID,20.2863,VALID,331,VALID,0,
2015-09-10, 08:10:04,VALID,920.743,VALID,0,VALID,100.98,VALID,207.791,VALID,20.3269,VALID,331,VALID,0,
2015-09-10, 08:11:04,VALID,920.742,VALID,0,VALID,100.972,VALID,205.105,VALID,20.4049,VALID,22,VALID,0,
2015-09-10, 08:12:04,VALID,920.727,VALID,0,VALID,101.041,VALID,203.601,VALID,20.4439,VALID,10,VALID,0,
2015-09-10, 08:13:04,VALID,920.696,VALID,0,VALID,101.026,VALID,212.089,VALID,20.5219,VALID,18,VALID,0,
2015-09-10, 08:14:04,VALID,920.703,VALID,0,VALID,100.995,VALID,208.328,VALID,20.5399,VALID,4,VALID,0,
2015-09-10, 08:15:04,VALID,920.706,VALID,0,VALID,101.064,VALID,196.725,VALID,20.5594,VALID,4,VALID,0,
2015-09-10, 08:16:04,VALID,920.716,VALID,0,VALID,101.086,VALID,213.915,VALID,20.5399,VALID,4,VALID,0,
2015-09-10, 08:17:04,VALID,920.762,VALID,0,VALID,101.094,VALID,224.767,VALID,20.5984,VALID,14,VALID,0,
2015-09-10, 08:18:04,VALID,920.75,VALID,0,VALID,101.132,VALID,233.47,VALID,20.6569,VALID,19,VALID,0,
2015-09-10, 08:19:04,VALID,920.776,VALID,0,VALID,101.132,VALID,237.015,VALID,20.7544,VALID,30,VALID,0,
2015-09-10, 08:20:04,VALID,920.821,VALID,0,VALID,101.231,VALID,240.346,VALID,20.7349,VALID,355,VALID,1.45625,
2015-09-10, 08:21:04,VALID,920.82,VALID,0,VALID,101.308,VALID,245.073,VALID,20.7154,VALID,25,VALID,0,
2015-09-10, 08:22:04,VALID,920.833,VALID,0,VALID,101.247,VALID,251.735,VALID,20.8129,VALID,9,VALID,0,
2015-09-10, 08:23:04,VALID,920.863,VALID,0,VALID,101.346,VALID,250.23,VALID,20.8714,VALID,354,VALID,0,
2015-09-10, 08:24:04,VALID,920.867,VALID,0,VALID,101.384,VALID,236.048,VALID,20.8324,VALID,336,VALID,0,
2015-09-10, 08:25:04,VALID,920.862,VALID,0,VALID,101.361,VALID,218.213,VALID,20.9105,VALID,348,VALID,0,
2015-09-10, 08:26:04,VALID,920.853,VALID,0,VALID,101.315,VALID,215.849,VALID,20.9885,VALID,2,VALID,0,
2015-09-10, 08:27:04,VALID,920.86,VALID,0,VALID,101.292,VALID,213.056,VALID,21.0665,VALID,355,VALID,0,
2015-09-10, 08:28:04,VALID,920.886,VALID,0,VALID,101.323,VALID,223.048,VALID,21.125,VALID,356,VALID,0,
2015-09-10, 08:29:04,VALID,920.881,VALID,0,VALID,101.376,VALID,218.858,VALID,21.086,VALID,25,VALID,1.36211,
2015-09-10, 08:30:04,VALID,920.924,VALID,0,VALID,101.239,VALID,194.898,VALID,21.125,VALID,27,VALID,0,
2015-09-10, 08:31:04,VALID,920.929,VALID,0,VALID,101.155,VALID,202.527,VALID,21.2242,VALID,27,VALID,0,
2015-09-10, 08:32:04,VALID,920.984,VALID,0,VALID,101.109,VALID,240.668,VALID,21.2421,VALID,333,VALID,0,
2015-09-10, 08:33:04,VALID,920.987,VALID,0,VALID,100.972,VALID,265.38,VALID,21.2226,VALID,14,VALID,0,
2015-09-10, 08:34:04,VALID,921.018,VALID,0,VALID,100.751,VALID,276.124,VALID,21.2226,VALID,1,VALID,0,
2015-09-10, 08:35:04,VALID,921.042,VALID,0,VALID,100.431,VALID,280.959,VALID,21.2421,VALID,31,VALID,0,
2015-09-10, 08:36:04,VALID,921.031,VALID,0,VALID,99.943,VALID,269.462,VALID,21.3006,VALID,13,VALID,0,
2015-09-10, 08:37:04,VALID,921.079,VALID,0,VALID,99.2874,VALID,244.858,VALID,21.3396,VALID,2,VALID,0,
2015-09-10, 08:38:04,VALID,921.104,VALID,0,VALID,99.234,VALID,234.222,VALID,21.4177,VALID,1,VALID,0,
2015-09-10, 08:39:04,VALID,921.1,VALID,0,VALID,99.0968,VALID,239.164,VALID,21.416,VALID,342,VALID,0,
2015-09-10, 08:40:04,VALID,921.143,VALID,0,VALID,99.1578,VALID,217.353,VALID,21.4762,INVALID,360,VALID,0,
2015-09-10, 08:41:04,VALID,921.146,VALID,0,VALID,98.8452,VALID,194.683,VALID,21.4177,VALID,315,VALID,0,
2015-09-10, 08:42:04,VALID,921.134,VALID,0,VALID,98.6165,VALID,187.485,VALID,21.4177,VALID,328,VALID,0,
2015-09-10, 08:43:04,VALID,921.153,VALID,0,VALID,98.3497,VALID,192.212,VALID,21.4177,VALID,315,VALID,0,
2015-09-10, 08:44:04,VALID,921.155,VALID,0,VALID,98.3192,VALID,198.551,VALID,21.4372,VALID,315,VALID,0,
2015-09-10, 08:45:04,VALID,921.157,VALID,0,VALID,98.647,VALID,207.361,VALID,21.4355,VALID,327,VALID,0,
2015-09-10, 08:46:04,VALID,921.151,VALID,0,VALID,98.8605,VALID,187.7,VALID,21.455,VALID,333,VALID,0,
2015-09-10, 08:47:04,VALID,921.155,VALID,0,VALID,99.0968,VALID,189.956,VALID,21.5347,INVALID,360,VALID,0,
2015-09-10, 08:48:04,VALID,921.151,VALID,0,VALID,98.8452,VALID,193.824,VALID,21.5721,INVALID,360,VALID,0,
2015-09-10, 08:49:04,VALID,921.174,VALID,0,VALID,98.5936,VALID,196.832,VALID,21.6306,VALID,2,VALID,0,
2015-09-10, 08:50:04,VALID,921.171,VALID,0,VALID,97.5797,VALID,198.766,VALID,21.6111,VALID,18,VALID,0,
2015-09-10, 08:51:04,VALID,921.184,VALID,0,VALID,97.2062,VALID,199.626,VALID,21.6111,VALID,18,VALID,0,
2015-09-10, 08:52:04,VALID,921.218,VALID,0,VALID,97.7398,VALID,204.998,VALID,21.6891,VALID,18,VALID,0,
2015-09-10, 08:53:04,VALID,921.216,VALID,0,VALID,97.9914,VALID,211.981,VALID,21.7867,VALID,18,VALID,0,
2015-09-10, 08:54:04,VALID,921.248,VALID,0,VALID,97.6636,VALID,217.353,VALID,21.8859,VALID,18,VALID,0,
2015-09-10, 08:55:04,VALID,921.24,VALID,0,VALID,97.3358,VALID,219.502,VALID,21.9835,VALID,16,VALID,0,
2015-09-10, 08:56:04,VALID,921.229,VALID,0,VALID,95.1783,VALID,220.147,VALID,21.9623,VALID,6,VALID,0,
2015-09-10, 08:57:04,VALID,921.24,VALID,0,VALID,95.3308,VALID,221.973,VALID,22.0208,VALID,6,VALID,0,
2015-09-10, 08:58:04,VALID,921.273,VALID,0,VALID,95.8721,VALID,224.767,VALID,22.0794,VALID,7,VALID,0,
2015-09-10, 08:59:04,VALID,921.298,VALID,0,VALID,95.8416,VALID,228.635,VALID,22.1574,VALID,304,VALID,0,
2015-09-10, 09:00:04,VALID,921.256,VALID,0,VALID,95.3308,VALID,237.23,VALID,22.0582,VALID,299,VALID,0,
2015-09-10, 09:01:04,VALID,921.251,VALID,0,VALID,95.834,VALID,237.66,VALID,22.0208,VALID,299,VALID,0,
2015-09-10, 09:02:04,VALID,921.238,VALID,0,VALID,96.3524,VALID,231.751,VALID,21.9818,VALID,300,VALID,0,
2015-09-10, 09:03:04,VALID,921.241,VALID,0,VALID,96.1236,VALID,219.18,VALID,21.9623,VALID,302,VALID,0,
2015-09-10, 09:04:04,VALID,921.278,VALID,0,VALID,96.2837,VALID,203.816,VALID,21.9623,VALID,305,VALID,0,
2015-09-10, 09:05:04,VALID,921.274,VALID,0,VALID,95.3232,VALID,188.022,VALID,21.9233,VALID,295,VALID,0,
2015-09-10, 09:06:04,VALID,921.258,VALID,0,VALID,95.8035,VALID,177.063,VALID,21.8436,VALID,293,VALID,0,
2015-09-10, 09:07:04,VALID,921.294,VALID,0,VALID,94.7667,VALID,174.484,VALID,21.8045,VALID,237,VALID,0,
2015-09-10, 09:08:04,VALID,921.308,VALID,0,VALID,95.9026,VALID,179.104,VALID,21.8257,VALID,237,VALID,0,
2015-09-10, 09:09:04,VALID,921.295,VALID,0,VALID,96.3066,VALID,181.038,VALID,21.8647,VALID,237,VALID,0,
2015-09-10, 09:10:04,VALID,921.327,VALID,0,VALID,96.4515,VALID,173.732,VALID,21.9021,VALID,237,VALID,0,
2015-09-10, 09:11:04,VALID,921.333,VALID,0,VALID,95.7882,VALID,170.617,VALID,21.9606,VALID,245,VALID,0,
2015-09-10, 09:12:04,VALID,921.3,VALID,0,VALID,95.773,VALID,169.864,VALID,22.0794,VALID,258,VALID,0,
2015-09-10, 09:13:04,VALID,921.328,VALID,0,VALID,95.4833,VALID,166.211,VALID,22.1362,VALID,258,VALID,0,
2015-09-10, 09:14:04,VALID,921.358,VALID,0,VALID,91.8317,VALID,159.335,VALID,22.1752,VALID,258,VALID,0,
2015-09-10, 09:15:04,VALID,921.349,VALID,0,VALID,89.3846,VALID,153.426,VALID,22.0582,VALID,279,VALID,0,
2015-09-10, 09:16:04,VALID,921.368,VALID,0,VALID,93.303,VALID,151.492,VALID,21.9623,VALID,279,VALID,0,
2015-09-10, 09:17:04,VALID,921.408,VALID,0,VALID,95.3461,VALID,152.137,VALID,21.9411,VALID,279,VALID,0,
2015-09-10, 09:18:04,VALID,921.4,VALID,0,VALID,95.2851,VALID,147.517,VALID,21.9216,VALID,279,VALID,0,
2015-09-10, 09:19:04,VALID,921.421,VALID,0,VALID,95.7654,VALID,140.426,VALID,21.9801,VALID,279,VALID,0,
2015-09-10, 09:20:04,VALID,921.433,VALID,0,VALID,95.6967,VALID,135.806,VALID,22.0598,VALID,279,VALID,0,
2015-09-10, 09:21:04,VALID,921.42,VALID,0,VALID,94.4617,VALID,136.02,VALID,22.0598,VALID,251,VALID,0,
2015-09-10, 09:22:04,VALID,921.462,VALID,0,VALID,94.6371,VALID,142.789,VALID,22.0225,VALID,260,VALID,0,
2015-09-10, 09:23:04,VALID,921.471,VALID,0,VALID,94.3626,VALID,144.616,VALID,22.003,VALID,261,VALID,0,
2015-09-10, 09:24:04,VALID,921.493,VALID,0,VALID,94.9649,VALID,146.55,VALID,22.0225,VALID,261,VALID,0,
2015-09-10, 09:25:04,VALID,921.494,VALID,0,VALID,94.5532,VALID,152.781,VALID,22.0615,VALID,276,VALID,0,
2015-09-10, 09:26:04,VALID,921.484,VALID,0,VALID,95.4147,VALID,159.228,VALID,22.0794,VALID,5,VALID,0,
2015-09-10, 09:27:04,VALID,921.488,VALID,0,VALID,91.1532,VALID,167.178,VALID,22.0208,VALID,16,VALID,0,
2015-09-10, 09:28:04,VALID,921.518,VALID,0,VALID,92.7998,VALID,169.65,VALID,21.9818,VALID,35,VALID,0,
2015-09-10, 09:29:04,VALID,921.536,VALID,0,VALID,93.9052,VALID,172.121,VALID,22.0013,VALID,36,VALID,0,
2015-09-10, 09:30:04,VALID,921.531,VALID,0,VALID,94.6218,VALID,169.327,VALID,22.0013,VALID,35,VALID,0,
2015-09-10, 09:31:04,VALID,921.539,VALID,0,VALID,95.2088,VALID,166.534,VALID,21.9835,VALID,29,VALID,0,
2015-09-10, 09:32:04,VALID,921.545,VALID,0,VALID,96.1694,VALID,163.955,VALID,22.0225,VALID,16,VALID,0,
2015-09-10, 09:33:04,VALID,921.576,VALID,0,VALID,93.3106,VALID,162.881,VALID,21.9623,VALID,24,VALID,0,
2015-09-10, 09:34:04,VALID,921.588,VALID,0,VALID,92.7236,VALID,190.815,VALID,21.9038,VALID,26,VALID,0,
2015-09-10, 09:35:04,VALID,921.578,VALID,0,VALID,94.7972,VALID,166.211,VALID,21.8842,VALID,29,VALID,0,
2015-09-10, 09:36:04,VALID,921.577,VALID,0,VALID,95.4604,VALID,167.071,VALID,21.9233,VALID,357,VALID,0,
2015-09-10, 09:37:04,VALID,921.615,VALID,0,VALID,95.5443,VALID,167.286,VALID,22.0013,VALID,356,VALID,0,
2015-09-10, 09:38:04,VALID,921.586,VALID,0,VALID,95.3156,VALID,167.393,VALID,22.0598,VALID,346,VALID,0,
2015-09-10, 09:39:04,VALID,921.603,VALID,0,VALID,95.3766,VALID,165.459,VALID,22.1005,VALID,8,VALID,0,
2015-09-10, 09:40:04,VALID,921.599,VALID,0,VALID,91.7631,VALID,161.377,VALID,22.0403,VALID,5,VALID,0,
2015-09-10, 09:41:04,VALID,921.622,VALID,0,VALID,93.2191,VALID,157.616,VALID,22.0013,VALID,350,VALID,0,
2015-09-10, 09:42:04,VALID,921.627,VALID,0,VALID,94.942,VALID,152.352,VALID,22.0013,VALID,10,VALID,0,
2015-09-10, 09:43:04,VALID,921.654,VALID,0,VALID,95.9026,VALID,147.946,VALID,21.9623,VALID,10,VALID,0,
2015-09-10, 09:44:04,VALID,921.646,VALID,0,VALID,96.4133,VALID,144.508,VALID,22.0208,VALID,10,VALID,0,
2015-09-10, 09:45:04,VALID,921.641,VALID,0,VALID,96.0245,VALID,142.36,VALID,22.1005,INVALID,360,VALID,0,
2015-09-10, 09:46:04,VALID,921.67,VALID,0,VALID,95.3079,VALID,140.748,VALID,22.1379,VALID,352,VALID,0,
2015-09-10, 09:47:04,VALID,921.641,VALID,0,VALID,95.5367,VALID,138.492,VALID,22.2176,VALID,352,VALID,0,
2015-09-10, 09:48:04,VALID,921.649,VALID,0,VALID,95.9864,VALID,135.698,VALID,22.255,VALID,352,VALID,0,
2015-09-10, 09:49:04,VALID,921.659,VALID,0,VALID,95.9559,VALID,131.078,VALID,22.3542,VALID,44,VALID,0,
2015-09-10, 09:50:04,VALID,921.654,VALID,0,VALID,95.0335,VALID,127.21,VALID,22.333,VALID,36,VALID,0,
2015-09-10, 09:51:04,VALID,921.66,VALID,0,VALID,95.1631,VALID,124.309,VALID,22.372,VALID,33,VALID,0,
2015-09-10, 09:52:04,VALID,921.659,VALID,0,VALID,95.2698,VALID,120.979,VALID,22.3916,VALID,22,VALID,0,
2015-09-10, 09:53:04,VALID,921.636,VALID,0,VALID,94.9344,VALID,120.979,VALID,22.372,VALID,21,VALID,0,
2015-09-10, 09:54:04,VALID,921.677,VALID,0,VALID,95.4985,VALID,124.739,VALID,22.3525,VALID,19,VALID,0,
2015-09-10, 09:55:04,VALID,921.636,VALID,0,VALID,94.6752,VALID,128.07,VALID,22.255,VALID,12,VALID,0,
2015-09-10, 09:56:04,VALID,921.627,VALID,0,VALID,93.5393,VALID,132.045,VALID,22.1574,VALID,19,VALID,0,
2015-09-10, 09:57:04,VALID,921.608,VALID,0,VALID,95.1936,VALID,135.376,VALID,22.1574,VALID,20,VALID,0,
2015-09-10, 09:58:04,VALID,921.571,VALID,0,VALID,95.3613,VALID,139.244,VALID,22.1574,VALID,30,VALID,0,
2015-09-10, 09:59:04,VALID,921.544,VALID,0,VALID,95.9941,VALID,146.442,VALID,22.1964,VALID,30,VALID,0,
2015-09-10, 10:00:04,VALID,921.559,VALID,0,VALID,95.4909,VALID,153.641,VALID,22.2159,VALID,30,VALID,0,
2015-09-10, 10:01:04,VALID,921.571,VALID,0,VALID,91.946,VALID,160.517,VALID,22.1574,VALID,30,VALID,0,
2015-09-10, 10:02:04,VALID,921.531,VALID,0,VALID,94.3779,VALID,164.17,VALID,22.1786,VALID,30,VALID,0,
2015-09-10, 10:03:04,VALID,921.564,VALID,0,VALID,91.664,VALID,166.319,VALID,22.1396,VALID,30,VALID,0,
2015-09-10, 10:04:04,VALID,921.523,VALID,0,VALID,90.955,VALID,167.823,VALID,22.1574,VALID,30,VALID,0,
2015-09-10, 10:05:04,VALID,921.573,VALID,0,VALID,88.8128,VALID,165.03,VALID,22.2371,VALID,29,VALID,0,
2015-09-10, 10:06:04,VALID,921.564,VALID,0,VALID,85.5271,VALID,158.261,VALID,22.255,VALID,29,VALID,0,
2015-09-10, 10:07:04,VALID,921.553,VALID,0,VALID,86.663,VALID,153.104,VALID,22.294,VALID,22,VALID,0,
2015-09-10, 10:08:04,VALID,921.556,VALID,0,VALID,87.9818,VALID,151.062,VALID,22.255,VALID,33,VALID,0,
2015-09-10, 10:09:04,VALID,921.55,VALID,0,VALID,88.7061,VALID,150.203,VALID,22.1964,VALID,5,VALID,0,
2015-09-10, 10:10:04,VALID,921.565,VALID,0,VALID,89.1482,VALID,147.732,VALID,22.1769,VALID,8,VALID,0,
2015-09-10, 10:11:04,VALID,921.573,VALID,0,VALID,87.8446,VALID,143.649,VALID,22.1574,VALID,360,VALID,0,
2015-09-10, 10:12:04,VALID,921.582,VALID,0,VALID,89.2092,VALID,136.987,VALID,22.1379,VALID,14,VALID,0,
2015-09-10, 10:13:04,VALID,921.588,VALID,0,VALID,88.6832,VALID,130.219,VALID,22.0403,VALID,8,VALID,0,
2015-09-10, 10:14:04,VALID,921.577,VALID,0,VALID,88.8662,VALID,129.037,VALID,22.003,VALID,357,VALID,0,
2015-09-10, 10:15:04,VALID,921.559,VALID,0,VALID,94.0577,VALID,126.566,VALID,22.0013,VALID,358,VALID,0,
2015-09-10, 10:16:04,VALID,921.562,VALID,0,VALID,95.0411,VALID,123.45,VALID,22.0013,VALID,4,VALID,0,
2015-09-10, 10:17:04,VALID,921.567,VALID,0,VALID,94.8048,VALID,122.698,VALID,21.9996,VALID,12,VALID,0,
2015-09-10, 10:18:04,VALID,921.538,VALID,0,VALID,94.8124,VALID,120.549,VALID,22.0598,VALID,357,VALID,0,
2015-09-10, 10:19:04,VALID,921.551,VALID,0,VALID,94.942,VALID,118.83,VALID,22.0989,VALID,2,VALID,0,
2015-09-10, 10:20:04,VALID,921.569,VALID,0,VALID,93.6155,VALID,119.045,VALID,22.0794,VALID,14,VALID,0,
2015-09-10, 10:21:04,VALID,921.543,VALID,0,VALID,94.6295,VALID,119.797,VALID,22.0403,VALID,17,VALID,0,
2015-09-10, 10:22:04,VALID,921.559,VALID,0,VALID,95.3079,VALID,118.293,VALID,22.0794,VALID,17,VALID,0,
2015-09-10, 10:23:04,VALID,921.518,VALID,0,VALID,94.3626,VALID,117.648,VALID,22.0794,VALID,333,VALID,0,
2015-09-10, 10:24:04,VALID,921.559,VALID,0,VALID,95.0716,VALID,117.111,VALID,22.1379,VALID,358,VALID,0,
2015-09-10, 10:25:04,VALID,921.562,VALID,0,VALID,94.1492,VALID,115.607,VALID,22.1769,VALID,9,VALID,0,
2015-09-10, 10:26:04,VALID,921.556,VALID,0,VALID,91.3361,VALID,114.317,VALID,22.2159,VALID,41,VALID,0,
2015-09-10, 10:27:04,VALID,921.568,VALID,0,VALID,93.8061,VALID,113.78,VALID,22.2745,VALID,42,VALID,0,
2015-09-10, 10:28:04,VALID,921.568,VALID,0,VALID,95.2546,VALID,115.177,VALID,22.3135,VALID,42,VALID,0,
2015-09-10, 10:29:04,VALID,921.536,VALID,0,VALID,95.7349,VALID,118.078,VALID,22.3916,VALID,42,VALID,0,
2015-09-10, 10:30:04,VALID,921.534,VALID,0,VALID,95.5214,VALID,121.623,VALID,22.4713,VALID,42,VALID,0,
2015-09-10, 10:31:04,VALID,921.539,VALID,0,VALID,95.3994,VALID,124.739,VALID,22.5281,VALID,42,VALID,0,
2015-09-10, 10:32:04,VALID,921.542,VALID,0,VALID,94.9649,VALID,128.07,VALID,22.6257,VALID,42,VALID,0,
2015-09-10, 10:33:04,VALID,921.513,VALID,0,VALID,95.0945,VALID,130.648,VALID,22.6647,VALID,42,VALID,0,
2015-09-10, 10:34:04,VALID,921.521,VALID,0,VALID,94.8963,VALID,132.367,VALID,22.7233,VALID,36,VALID,0,
2015-09-10, 10:35:04,VALID,921.509,VALID,0,VALID,94.2635,VALID,133.227,VALID,22.7623,VALID,30,VALID,0,
2015-09-10, 10:36:04,VALID,921.544,VALID,0,VALID,93.0362,VALID,134.087,VALID,22.7038,VALID,13,VALID,0,
2015-09-10, 10:37:04,VALID,921.515,VALID,0,VALID,94.7057,VALID,134.516,VALID,22.6647,VALID,27,VALID,0,
2015-09-10, 10:38:04,VALID,921.531,VALID,0,VALID,93.4478,VALID,135.698,VALID,22.6452,VALID,13,VALID,0,
2015-09-10, 10:39:04,VALID,921.54,VALID,0,VALID,90.2765,VALID,138.384,VALID,22.5672,VALID,13,VALID,0,
2015-09-10, 10:40:04,VALID,921.519,VALID,0,VALID,90.4823,VALID,141.285,VALID,22.5281,VALID,13,VALID,0,
2015-09-10, 10:41:04,VALID,921.513,VALID,0,VALID,90.9702,VALID,144.079,VALID,22.4891,VALID,13,VALID,0,
2015-09-10, 10:42:04,VALID,921.526,VALID,0,VALID,94.66,VALID,146.657,VALID,22.4696,VALID,21,VALID,0,
2015-09-10, 10:43:04,VALID,921.503,VALID,0,VALID,92.19,VALID,149.128,VALID,22.4501,VALID,4,VALID,0,
2015-09-10, 10:44:04,VALID,921.502,VALID,0,VALID,88.5917,VALID,152.244,VALID,22.4111,VALID,360,VALID,0,
2015-09-10, 10:45:04,VALID,921.473,VALID,0,VALID,88.7594,VALID,155.467,VALID,22.372,VALID,3,VALID,0,
2015-09-10, 10:46:04,VALID,921.496,VALID,0,VALID,92.5559,VALID,158.261,VALID,22.3525,VALID,21,VALID,0,
2015-09-10, 10:47:04,VALID,921.473,VALID,0,VALID,94.7209,VALID,161.269,VALID,22.3916,VALID,18,VALID,0,
2015-09-10, 10:48:04,VALID,921.494,VALID,0,VALID,94.0348,VALID,162.773,VALID,22.4891,VALID,18,VALID,0,
2015-09-10, 10:49:04,VALID,921.493,VALID,0,VALID,94.4465,VALID,161.591,VALID,22.6062,VALID,18,VALID,0,
2015-09-10, 10:50:04,VALID,921.54,VALID,0,VALID,93.2115,VALID,161.699,VALID,22.7428,VALID,18,VALID,0,
2015-09-10, 10:51:04,VALID,921.515,VALID,0,VALID,94.3017,VALID,162.773,VALID,22.8404,VALID,18,VALID,0,
2015-09-10, 10:52:04,VALID,921.502,VALID,0,VALID,85.5652,VALID,169.005,VALID,22.8014,VALID,346,VALID,0,
2015-09-10, 10:53:04,VALID,921.53,VALID,0,VALID,87.311,VALID,176.956,VALID,22.8014,VALID,325,VALID,0,
2015-09-10, 10:54:04,VALID,921.471,VALID,0,VALID,91.4734,VALID,184.369,VALID,22.8014,VALID,344,VALID,0,
2015-09-10, 10:55:04,VALID,921.485,VALID,0,VALID,90.124,VALID,190.063,VALID,22.8209,VALID,355,VALID,0,
2015-09-10, 10:56:04,VALID,921.451,VALID,0,VALID,89.2473,VALID,194.683,VALID,22.8794,VALID,355,VALID,0,
2015-09-10, 10:57:04,VALID,921.466,VALID,0,VALID,87.372,VALID,198.336,VALID,22.8599,VALID,11,VALID,0,
2015-09-10, 10:58:04,VALID,921.464,VALID,0,VALID,87.3415,VALID,200.915,VALID,22.8404,VALID,11,VALID,0,
2015-09-10, 10:59:04,VALID,921.436,VALID,0,VALID,87.7913,VALID,203.708,VALID,22.8599,VALID,34,VALID,0,
2015-09-10, 11:00:04,VALID,921.436,VALID,0,VALID,86.7773,VALID,208.006,VALID,22.8989,VALID,35,VALID,0,
2015-09-10, 11:01:04,VALID,921.41,VALID,0,VALID,86.0379,VALID,212.948,VALID,22.977,VALID,34,VALID,0,
2015-09-10, 11:02:04,VALID,921.43,VALID,0,VALID,85.1231,VALID,217.139,VALID,23.0356,VALID,34,VALID,0,
2015-09-10, 11:03:04,VALID,921.388,VALID,0,VALID,84.8944,VALID,220.469,VALID,23.0746,VALID,26,VALID,0,
2015-09-10, 11:04:04,VALID,921.373,VALID,0,VALID,85.4814,VALID,224.122,VALID,23.1136,VALID,12,VALID,0,
2015-09-10, 11:05:04,VALID,921.377,VALID,0,VALID,84.7495,VALID,230.246,VALID,23.1136,VALID,70,VALID,0,
2015-09-10, 11:06:04,VALID,921.394,VALID,0,VALID,84.7343,VALID,236.585,VALID,23.1331,VALID,59,VALID,0,
2015-09-10, 11:07:04,VALID,921.397,VALID,0,VALID,84.5742,VALID,240.883,VALID,23.1704,VALID,53,VALID,0,
2015-09-10, 11:08:04,VALID,921.397,VALID,0,VALID,84.9782,VALID,248.726,VALID,23.1527,VALID,52,VALID,0,
2015-09-10, 11:09:04,VALID,921.374,VALID,0,VALID,84.7648,VALID,254.743,VALID,23.1527,VALID,23,VALID,0,
2015-09-10, 11:10:04,VALID,921.384,VALID,0,VALID,83.9796,VALID,259.363,VALID,23.1136,VALID,23,VALID,0,
2015-09-10, 11:11:04,VALID,921.352,VALID,0,VALID,83.1257,VALID,263.553,VALID,23.0551,VALID,21,VALID,0,
2015-09-10, 11:12:04,VALID,921.391,VALID,0,VALID,84.1854,VALID,266.454,VALID,23.0551,VALID,24,VALID,0,
2015-09-10, 11:13:04,VALID,921.335,VALID,0,VALID,83.4002,VALID,268.71,VALID,23.0533,VALID,17,VALID,0.125,
2015-09-10, 11:14:04,VALID,921.393,VALID,0,VALID,83.3316,VALID,272.578,VALID,23.016,VALID,296,VALID,0,
2015-09-10, 11:15:04,VALID,921.346,VALID,0,VALID,83.9796,VALID,274.19,VALID,22.9948,VALID,311,VALID,0,
2015-09-10, 11:16:04,VALID,921.358,VALID,0,VALID,84.2921,VALID,278.38,VALID,23.0551,VALID,324,VALID,0,
2015-09-10, 11:17:04,VALID,921.332,VALID,0,VALID,83.0038,VALID,285.686,VALID,23.0338,VALID,255,VALID,0,
2015-09-10, 11:18:04,VALID,921.317,VALID,0,VALID,84.2159,VALID,292.992,VALID,23.0551,VALID,257,VALID,0,
2015-09-10, 11:19:04,VALID,921.326,VALID,0,VALID,83.6289,VALID,301.05,VALID,23.1119,VALID,302,VALID,0,
2015-09-10, 11:20:04,VALID,921.292,VALID,0,VALID,81.9136,VALID,305.778,VALID,23.1314,VALID,342,VALID,0,
2015-09-10, 11:21:04,VALID,921.275,VALID,0,VALID,83.6594,VALID,310.397,VALID,23.229,VALID,2,VALID,0,
2015-09-10, 11:22:04,VALID,921.262,VALID,0,VALID,83.9109,VALID,312.439,VALID,23.1899,VALID,5,VALID,0,
2015-09-10, 11:23:04,VALID,921.254,VALID,0,VALID,84.7114,VALID,312.546,VALID,23.2094,VALID,38,VALID,0.417969,
2015-09-10, 11:24:04,VALID,921.237,VALID,0,VALID,84.3683,VALID,315.017,VALID,23.307,VALID,37,VALID,0,
2015-09-10, 11:25:04,VALID,921.254,VALID,0,VALID,84.8105,VALID,318.67,VALID,23.4241,VALID,38,VALID,0,
2015-09-10, 11:26:04,VALID,921.21,VALID,0,VALID,80.9149,VALID,312.654,VALID,23.4827,VALID,37,VALID,0,